Time,TemperatureF,DewpointF,PressureIn,WindDirection,WindDirectionDegrees,WindSpeedMPH,WindSpeedGustMPH,Humidity,HourlyPrecipIn,Conditions,Clouds,dailyrainin,SoftwareType,DateUTC
2013-04-25 00:02:00,41.0,34.0,29.93,North,-999,-999.0,-999.0,76,-99.99,,,-99.99,,2013-04-25 05:02:00,
2013-04-25 00:12:00,41.0,34.0,29.93,North,-999,-999.0,-999.0,76,-99.99,,,-99.99,,2013-04-25 05:12:00,
2013-04-25 00:21:00,40.0,33.0,29.93,North,-999,-999.0,-999.0,77,-99.99,,,-99.99,,2013-04-25 05:21:00,
2013-04-25 00:32:00,40.0,33.0,29.93,North,-999,-999.0,-999.0,76,-99.99,,,-99.99,,2013-04-25 05:32:00,
2013-04-25 00:42:00,40.0,33.0,29.93,North,-999,-999.0,-999.0,76,-99.99,,,-99.99,,2013-04-25 05:42:00,
2013-04-25 00:52:00,40.0,33.0,29.96,North,-999,-999.0,-999.0,75,-99.99,,,-99.99,,2013-04-25 05:52:00,
2013-04-25 01:02:00,40.0,33.0,29.96,North,-999,-999.0,-999.0,75,-99.99,,,-99.99,,2013-04-25 06:02:00,
2013-04-25 01:11:00,40.0,33.0,29.96,North,-999,-999.0,-999.0,75,-99.99,,,-99.99,,2013-04-25 06:11:00,
2013-04-25 01:22:00,40.0,33.0,29.96,North,-999,-999.0,-999.0,76,-99.99,,,-99.99,,2013-04-25 06:22:00,
2013-04-25 01:31:00,39.0,32.0,29.96,North,-999,-999.0,-999.0,76,-99.99,,,-99.99,,2013-04-25 06:31:00,
2013-04-25 01:42:00,39.0,32.0,29.96,North,-999,-999.0,-999.0,76,-99.99,,,-99.99,,2013-04-25 06:42:00,
2013-04-25 01:52:00,39.0,32.0,29.96,North,-999,-999.0,-999.0,76,-99.99,,,-99.99,,2013-04-25 06:52:00,
2013-04-25 02:02:00,39.0,32.0,29.96,North,-999,-999.0,-999.0,76,-99.99,,,-99.99,,2013-04-25 07:02:00,
2013-04-25 02:12:00,39.0,32.0,29.96,North,-999,-999.0,-999.0,76,-99.99,,,-99.99,,2013-04-25 07:12:00,
2013-04-25 02:22:00,39.0,32.0,29.96,North,-999,-999.0,-999.0,75,-99.99,,,-99.99,,2013-04-25 07:22:00,
2013-04-25 02:32:00,39.0,32.0,29.96,North,-999,-999.0,-999.0,75,-99.99,,,-99.99,,2013-04-25 07:32:00,
2013-04-25 02:42:00,39.0,32.0,29.96,North,-999,-999.0,-999.0,75,-99.99,,,-99.99,,2013-04-25 07:42:00,
2013-04-25 02:52:00,39.0,33.0,29.96,North,-999,-999.0,-999.0,78,-99.99,,,-99.99,,2013-04-25 07:52:00,
2013-04-25 03:01:00,39.0,33.0,29.96,North,-999,-999.0,-999.0,78,-99.99,,,-99.99,,2013-04-25 08:01:00,
2013-04-25 03:11:00,39.0,33.0,29.96,North,-999,-999.0,-999.0,78,-99.99,,,-99.99,,2013-04-25 08:11:00,
2013-04-25 03:21:00,39.0,33.0,29.96,North,-999,-999.0,-999.0,78,-99.99,,,-99.99,,2013-04-25 08:21:00,
2013-04-25 03:31:00,39.0,33.0,29.96,North,-999,-999.0,-999.0,78,-99.99,,,-99.99,,2013-04-25 08:31:00,
2013-04-25 08:53:00,39.0,31.0,30.11,North,-999,-999.0,-999.0,73,-99.99,,,-99.99,,2013-04-25 13:53:00,
2013-04-25 09:02:00,40.0,31.0,30.11,North,-999,-999.0,-999.0,71,-99.99,,,-99.99,,2013-04-25 14:02:00,
2013-04-25 09:11:00,40.0,31.0,30.11,North,-999,-999.0,-999.0,71,-99.99,,,-99.99,,2013-04-25 14:11:00,
2013-04-25 09:21:00,39.0,30.0,30.14,North,-999,-999.0,-999.0,71,-99.99,,,-99.99,,2013-04-25 14:21:00,
2013-04-25 09:32:00,39.0,30.0,30.14,North,-999,-999.0,-999.0,69,-99.99,,,-99.99,,2013-04-25 14:32:00,
2013-04-25 09:42:00,39.0,30.0,30.14,North,-999,-999.0,-999.0,69,-99.99,,,-99.99,,2013-04-25 14:42:00,
2013-04-25 09:52:00,39.0,30.0,30.14,North,-999,-999.0,-999.0,69,-99.99,,,-99.99,,2013-04-25 14:52:00,
2013-04-25 10:02:00,40.0,30.0,30.17,North,-999,-999.0,-999.0,68,-99.99,,,-99.99,,2013-04-25 15:02:00,
2013-04-25 10:11:00,40.0,30.0,30.17,North,-999,-999.0,-999.0,68,-99.99,,,-99.99,,2013-04-25 15:11:00,
2013-04-25 10:21:00,40.0,30.0,30.17,North,-999,-999.0,-999.0,68,-99.99,,,-99.99,,2013-04-25 15:21:00,
2013-04-25 10:33:00,40.0,30.0,30.17,North,-999,-999.0,-999.0,68,-99.99,,,-99.99,,2013-04-25 15:33:00,
2013-04-25 10:42:00,40.0,30.0,30.17,North,-999,-999.0,-999.0,68,-99.99,,,-99.99,,2013-04-25 15:42:00,
2013-04-25 10:52:00,40.0,30.0,30.17,North,-999,-999.0,-999.0,68,-99.99,,,-99.99,,2013-04-25 15:52:00,
2013-04-25 11:02:00,40.0,30.0,30.17,North,-999,-999.0,-999.0,68,-99.99,,,-99.99,,2013-04-25 16:02:00,
2013-04-25 12:32:00,48.0,30.0,30.20,North,-999,-999.0,-999.0,50,-99.99,,,-99.99,,2013-04-25 17:32:00,
2013-04-25 12:42:00,48.0,30.0,30.20,North,-999,-999.0,-999.0,50,-99.99,,,-99.99,,2013-04-25 17:42:00,
2013-04-25 12:53:00,49.0,31.0,30.20,North,-999,-999.0,-999.0,49,-99.99,,,-99.99,,2013-04-25 17:53:00,
2013-04-25 13:01:00,48.0,29.0,30.20,North,-999,-999.0,-999.0,48,-99.99,,,-99.99,,2013-04-25 18:01:00,
2013-04-25 13:11:00,48.0,29.0,30.20,North,-999,-999.0,-999.0,48,-99.99,,,-99.99,,2013-04-25 18:11:00,
2013-04-25 13:22:00,47.0,29.0,30.20,North,-999,-999.0,-999.0,50,-99.99,,,-99.99,,2013-04-25 18:22:00,
2013-04-25 13:32:00,48.0,30.0,30.20,North,-999,-999.0,-999.0,49,-99.99,,,-99.99,,2013-04-25 18:32:00,
2013-04-25 13:42:00,48.0,30.0,30.20,North,-999,-999.0,-999.0,49,-99.99,,,-99.99,,2013-04-25 18:42:00,
2013-04-25 13:53:00,48.0,29.0,30.20,North,-999,-999.0,-999.0,48,-99.99,,,-99.99,,2013-04-25 18:53:00,
2013-04-25 14:01:00,49.0,31.0,30.20,North,-999,-999.0,-999.0,49,-99.99,,,-99.99,,2013-04-25 19:01:00,
2013-04-25 14:12:00,49.0,31.0,30.20,North,-999,-999.0,-999.0,49,-99.99,,,-99.99,,2013-04-25 19:12:00,
2013-04-25 14:21:00,50.0,30.0,30.20,North,-999,-999.0,-999.0,46,-99.99,,,-99.99,,2013-04-25 19:21:00,
2013-04-25 14:31:00,51.0,31.0,30.20,North,-999,-999.0,-999.0,46,-99.99,,,-99.99,,2013-04-25 19:31:00,
2013-04-25 14:42:00,51.0,31.0,30.20,North,-999,-999.0,-999.0,46,-99.99,,,-99.99,,2013-04-25 19:42:00,
2013-04-25 14:52:00,50.0,30.0,30.20,North,-999,-999.0,-999.0,46,-99.99,,,-99.99,,2013-04-25 19:52:00,
2013-04-25 15:02:00,51.0,30.0,30.20,North,-999,-999.0,-999.0,44,-99.99,,,-99.99,,2013-04-25 20:02:00,
2013-04-25 15:11:00,51.0,30.0,30.20,North,-999,-999.0,-999.0,44,-99.99,,,-99.99,,2013-04-25 20:11:00,
2013-04-25 15:22:00,52.0,31.0,30.20,North,-999,-999.0,-999.0,45,-99.99,,,-99.99,,2013-04-25 20:22:00,
2013-04-25 15:32:00,52.0,32.0,30.20,North,-999,-999.0,-999.0,47,-99.99,,,-99.99,,2013-04-25 20:32:00,
2013-04-25 15:42:00,52.0,32.0,30.20,North,-999,-999.0,-999.0,47,-99.99,,,-99.99,,2013-04-25 20:42:00,
2013-04-25 15:52:00,52.0,32.0,30.20,North,-999,-999.0,-999.0,46,-99.99,,,-99.99,,2013-04-25 20:52:00,
2013-04-25 16:01:00,51.0,29.0,30.20,North,-999,-999.0,-999.0,43,-99.99,,,-99.99,,2013-04-25 21:01:00,
2013-04-25 16:11:00,51.0,29.0,30.20,North,-999,-999.0,-999.0,43,-99.99,,,-99.99,,2013-04-25 21:11:00,
2013-04-25 16:21:00,52.0,30.0,30.20,North,-999,-999.0,-999.0,42,-99.99,,,-99.99,,2013-04-25 21:21:00,
2013-04-25 16:33:00,52.0,32.0,30.17,North,-999,-999.0,-999.0,46,-99.99,,,-99.99,,2013-04-25 21:33:00,
2013-04-25 16:42:00,52.0,32.0,30.17,North,-999,-999.0,-999.0,46,-99.99,,,-99.99,,2013-04-25 21:42:00,
2013-04-25 16:52:00,52.0,31.0,30.20,North,-999,-999.0,-999.0,44,-99.99,,,-99.99,,2013-04-25 21:52:00,
2013-04-25 17:02:00,52.0,31.0,30.20,North,-999,-999.0,-999.0,44,-99.99,,,-99.99,,2013-04-25 22:02:00,
2013-04-25 17:12:00,52.0,31.0,30.20,North,-999,-999.0,-999.0,44,-99.99,,,-99.99,,2013-04-25 22:12:00,
2013-04-25 17:22:00,52.0,31.0,30.17,North,-999,-999.0,-999.0,44,-99.99,,,-99.99,,2013-04-25 22:22:00,
2013-04-25 17:32:00,52.0,30.0,30.17,North,-999,-999.0,-999.0,42,-99.99,,,-99.99,,2013-04-25 22:32:00,
2013-04-25 17:42:00,52.0,30.0,30.17,North,-999,-999.0,-999.0,42,-99.99,,,-99.99,,2013-04-25 22:42:00,
2013-04-25 17:52:00,52.0,30.0,30.17,North,-999,-999.0,-999.0,43,-99.99,,,-99.99,,2013-04-25 22:52:00,
2013-04-25 18:02:00,52.0,29.0,30.17,North,-999,-999.0,-999.0,41,-99.99,,,-99.99,,2013-04-25 23:02:00,
2013-04-25 18:12:00,52.0,29.0,30.17,North,-999,-999.0,-999.0,41,-99.99,,,-99.99,,2013-04-25 23:12:00,
2013-04-25 18:22:00,52.0,31.0,30.17,North,-999,-999.0,-999.0,44,-99.99,,,-99.99,,2013-04-25 23:22:00,
2013-04-25 18:32:00,52.0,30.0,30.17,North,-999,-999.0,-999.0,43,-99.99,,,-99.99,,2013-04-25 23:32:00,
2013-04-25 18:42:00,52.0,30.0,30.17,North,-999,-999.0,-999.0,43,-99.99,,,-99.99,,2013-04-25 23:42:00,
2013-04-25 18:52:00,52.0,30.0,30.14,North,-999,-999.0,-999.0,43,-99.99,,,-99.99,,2013-04-25 23:52:00,
2013-04-25 19:01:00,52.0,30.0,30.14,North,-999,-999.0,-999.0,43,-99.99,,,-99.99,,2013-04-26 00:01:00,
2013-04-25 19:11:00,52.0,30.0,30.14,North,-999,-999.0,-999.0,43,-99.99,,,-99.99,,2013-04-26 00:11:00,
2013-04-25 19:21:00,50.0,29.0,30.14,North,-999,-999.0,-999.0,44,-99.99,,,-99.99,,2013-04-26 00:21:00,
2013-04-25 19:31:00,49.0,29.0,30.14,North,-999,-999.0,-999.0,45,-99.99,,,-99.99,,2013-04-26 00:31:00,
2013-04-25 19:42:00,49.0,29.0,30.14,North,-999,-999.0,-999.0,45,-99.99,,,-99.99,,2013-04-26 00:42:00,
2013-04-25 19:52:00,48.0,29.0,30.14,North,-999,-999.0,-999.0,47,-99.99,,,-99.99,,2013-04-26 00:52:00,
2013-04-25 20:01:00,48.0,29.0,30.14,North,-999,-999.0,-999.0,47,-99.99,,,-99.99,,2013-04-26 01:01:00,
2013-04-25 20:11:00,48.0,29.0,30.14,North,-999,-999.0,-999.0,47,-99.99,,,-99.99,,2013-04-26 01:11:00,
2013-04-25 20:21:00,44.0,26.0,30.14,North,-999,-999.0,-999.0,49,-99.99,,,-99.99,,2013-04-26 01:21:00,
2013-04-25 20:31:00,43.0,25.0,30.14,North,-999,-999.0,-999.0,49,-99.99,,,-99.99,,2013-04-26 01:31:00,
2013-04-25 20:42:00,43.0,25.0,30.14,North,-999,-999.0,-999.0,49,-99.99,,,-99.99,,2013-04-26 01:42:00,
2013-04-25 20:52:00,41.0,24.0,30.14,North,-999,-999.0,-999.0,51,-99.99,,,-99.99,,2013-04-26 01:52:00,
2013-04-25 21:02:00,40.0,24.0,30.17,North,-999,-999.0,-999.0,52,-99.99,,,-99.99,,2013-04-26 02:02:00,
2013-04-25 21:11:00,40.0,24.0,30.17,North,-999,-999.0,-999.0,52,-99.99,,,-99.99,,2013-04-26 02:11:00,
2013-04-25 21:21:00,39.0,24.0,30.17,North,-999,-999.0,-999.0,54,-99.99,,,-99.99,,2013-04-26 02:21:00,
2013-04-25 21:32:00,38.0,23.0,30.17,North,-999,-999.0,-999.0,55,-99.99,,,-99.99,,2013-04-26 02:32:00,
2013-04-25 21:42:00,38.0,23.0,30.17,North,-999,-999.0,-999.0,55,-99.99,,,-99.99,,2013-04-26 02:42:00,
2013-04-25 21:51:00,38.0,24.0,30.17,North,-999,-999.0,-999.0,56,-99.99,,,-99.99,,2013-04-26 02:51:00,
2013-04-25 22:01:00,37.0,24.0,30.17,North,-999,-999.0,-999.0,58,-99.99,,,-99.99,,2013-04-26 03:01:00,
2013-04-25 22:11:00,37.0,24.0,30.17,North,-999,-999.0,-999.0,58,-99.99,,,-99.99,,2013-04-26 03:11:00,
2013-04-25 22:21:00,37.0,24.0,30.17,North,-999,-999.0,-999.0,58,-99.99,,,-99.99,,2013-04-26 03:21:00,
2013-04-25 22:33:00,37.0,24.0,30.20,North,-999,-999.0,-999.0,59,-99.99,,,-99.99,,2013-04-26 03:33:00,
2013-04-25 22:43:00,37.0,24.0,30.20,North,-999,-999.0,-999.0,59,-99.99,,,-99.99,,2013-04-26 03:43:00,
2013-04-25 22:53:00,37.0,24.0,30.17,North,-999,-999.0,-999.0,58,-99.99,,,-99.99,,2013-04-26 03:53:00,
2013-04-25 23:02:00,38.0,24.0,30.17,North,-999,-999.0,-999.0,57,-99.99,,,-99.99,,2013-04-26 04:02:00,
2013-04-25 23:12:00,38.0,24.0,30.17,North,-999,-999.0,-999.0,57,-99.99,,,-99.99,,2013-04-26 04:12:00,
2013-04-25 23:23:00,38.0,24.0,30.17,North,-999,-999.0,-999.0,56,-99.99,,,-99.99,,2013-04-26 04:23:00,
2013-04-25 23:32:00,39.0,24.0,30.17,North,-999,-999.0,-999.0,55,-99.99,,,-99.99,,2013-04-26 04:32:00,
2013-04-25 23:43:00,39.0,24.0,30.17,North,-999,-999.0,-999.0,55,-99.99,,,-99.99,,2013-04-26 04:43:00,
2013-04-25 23:53:00,39.0,24.0,30.17,North,-999,-999.0,-999.0,54,-99.99,,,-99.99,,2013-04-26 04:53:00,